[[{"header":{"parameterUnit":"m.s-1","parameterCategory":1,"la1":30.2991,"la2":30.254,"lo1":-89.0895,"lo2":-89.0444,"dy":0.0017,"dx":0.0017,"nx":28,"ny":28,"refTime":"2023-08-20T09:00:00:Z","depth":0,"parameterNumber":2,"parameterNumberName":"U-component_of_WINDS"},"data":[0,0,0,0,0,0,0,0,0,0,0,0,0,0,0,0,0,0,0,0,0,0,0,0,0,0,0,0,0,0,0,0,0,0,0,0,0,0,0,0,0,0,0,0,0,0,0,0,0,0,0,0,0,0,0,0,0,0,-6.4966,-6.4965,0,-6.491,-6.491,-6.4909,-6.4753,-6.475,-6.4747,-6.4743,-6.4691,-6.4693,-6.4694,0,0,0,0,0,0,0,0,0,0,0,0,0,-6.4942,-6.4943,-6.4966,-6.4965,-6.4964,-6.4911,-6.491,-6.4909,-6.4754,-6.475,-6.4746,-6.4742,-6.469,-6.4692,-6.4695,0,0,0,0,0,0,0,0,0,0,0,0,0,-6.4926,-6.4943,-6.4966,-6.488,-6.4872,-6.4911,-6.491,-6.4909,-6.4755,-6.475,-6.4745,-6.474,-6.469,-6.4692,-6.4695,-6.4813,0,0,-6.4703,-6.4704,0,0,0,0,0,0,0,0,-6.4927,-6.4927,-6.4894,-6.4886,-6.4877,-6.4833,-6.4882,-6.4877,-6.4756,-6.48,-6.4743,-6.4737,-6.4743,-6.4741,-6.4742,-6.481,-6.4808,-6.4703,-6.4705,-6.4706,-6.4707,0,0,0,0,0,0,0,-6.4928,-6.4929,-6.4944,-6.4893,-6.4883,-6.4846,-6.4839,-6.488,-6.4801,-6.4795,-6.4784,-6.4779,-6.4737,-6.474,-6.4739,-6.4807,-6.4703,-6.4705,-6.4707,-6.4708,-6.4971,-6.4976,0,0,0,0,0,0,-6.4941,-6.4931,-6.4946,-6.4942,-6.489,-6.4851,-6.4842,-6.4853,-6.48,-6.4787,-6.4784,-6.4772,-6.4738,-6.4736,-6.4737,-6.4871,-6.4706,-6.4708,-6.471,-6.4966,-6.4972,-6.4978,0,0,0,0,0,0,-6.4941,-6.4944,-6.4948,-6.4933,-6.4931,-6.4857,-6.487,-6.4854,-6.4856,-6.4791,-6.4776,-6.48,-6.4733,-6.4733,-6.4795,-6.4867,-6.471,-6.4712,-6.496,-6.4968,-6.4975,-6.5142,0,0,0,0,0,0,-6.4941,-6.4945,-6.4988,-6.4935,-6.4932,-6.5006,-6.4874,-6.4857,-6.4861,-6.4845,-6.4802,-6.479,-6.4729,-6.4792,-6.4798,-6.4868,-6.4714,-6.4953,-6.4963,-6.4973,-6.513,-6.5155,-6.5176,0,0,0,0,0,-6.4941,-6.5038,-6.4991,-6.4993,-6.4984,-6.5011,-6.5009,-6.4935,-6.4867,-6.491,-6.4869,-6.4792,-6.4859,-6.48,-6.4805,-6.4877,-6.4948,-6.496,-6.4972,-6.5119,-6.515,-6.5176,0,0,0,0,0,0,-6.5101,-6.5029,-6.4976,-6.5059,-6.5042,-6.4984,-6.5036,-6.497,-6.4973,-6.4959,-6.4869,-6.4861,-6.4936,-6.4913,-6.4848,-6.4989,-6.4891,-6.4905,-6.5001,-6.503,-6.5053,-6.5056,-6.4716,0,0,0,0,0,-6.5146,-6.5173,-6.5108,-6.5188,-6.5182,-6.5111,-6.512,-6.5065,-6.5044,-6.5037,-6.4999,-6.4983,-6.5001,-6.5014,-6.5026,-6.5126,-6.5115,-6.5179,-6.5202,-6.5222,-6.5235,-6.5286,-6.5314,-6.5018,-6.5018,-6.5018,0,0,-6.524,-6.5203,-6.5225,-6.5219,-6.5199,-6.523,-6.5106,-6.5143,-6.5165,-6.5043,-6.5098,-6.5071,-6.5047,-6.5129,-6.5163,-6.5112,-6.5314,-6.5237,-6.5253,-6.5255,-6.5302,-6.533,-6.5355,-6.5027,-6.5025,-6.5024,0,0,-6.5425,-6.54,-6.5463,-6.5446,-6.5417,-6.537,-6.5386,-6.5338,-6.5315,-6.5369,-6.5278,-6.5304,-6.5336,-6.5323,-6.5321,-6.5503,-6.5433,-6.551,-6.5632,-6.5683,-6.5706,-6.5727,-6.5792,-6.5816,-6.5523,-6.5524,-6.5524,0,-6.5544,-6.5585,-6.5504,-6.5547,-6.5547,-6.5437,-6.5501,-6.5489,-6.5468,-6.5471,-6.5414,-6.5452,-6.5429,-6.5506,-6.5551,-6.5553,-6.5568,-6.5514,-6.5709,-6.5729,-6.5746,-6.5808,-6.5832,-6.5533,-6.5532,-6.5531,-6.553,0,-6.5733,-6.5763,-6.5818,-6.5798,-6.5805,-6.5859,-6.5788,-6.5805,-6.575,-6.5709,-6.5767,-6.5735,-6.574,-6.5754,-6.5702,-6.5825,-6.5794,-6.5725,-6.5624,-6.5786,-6.5841,-6.5864,-6.5547,-6.5543,-6.5541,-6.5538,0,0,-6.6016,-6.5952,-6.5973,-6.5963,-6.5925,-6.5947,-6.5997,-6.6,-6.6017,-6.6006,-6.6046,-6.6076,-6.6012,-6.601,-6.5955,-6.6001,-6.6148,-6.5926,-6.5924,-6.5968,-6.6282,-6.6334,-6.6362,-6.6102,-6.6106,-6.6109,-6.6284,0,-6.619,-6.6269,-6.6199,-6.6292,-6.632,-6.6217,-6.626,-6.6242,-6.6206,-6.6225,-6.6186,-6.6209,-6.6123,-6.6121,-6.6161,-6.6121,-6.621,-6.6108,-6.6139,-6.6141,-6.6147,-6.6391,-6.6446,-6.6612,-6.6305,-6.6309,-6.6312,0,-6.6403,-6.6402,-6.6498,-6.6454,-6.6462,-6.6503,-6.65,-6.652,-6.6498,-6.6469,-6.6468,-6.6401,-6.6448,-6.6351,-6.6415,-6.6348,-6.6356,-6.6339,-6.6344,-6.6343,-6.6235,-6.6397,-6.6663,-6.6688,-6.6345,-6.6343,-6.634,0,-6.66,-6.6622,-6.6682,-6.6677,-6.6627,-6.6658,-6.6639,-6.6612,-6.6619,-6.6618,-6.6622,-6.6627,-6.663,-6.6637,-6.6574,-6.6509,-6.6647,-6.6544,-6.6625,-6.6627,-6.6657,-6.6656,-6.6929,-6.6665,-6.6665,-6.6664,-6.6664,0,-6.6801,-6.6864,-6.6769,-6.6806,-6.6874,-6.6794,-6.6864,-6.6834,-6.6812,-6.6843,-6.6755,-6.6786,-6.6701,-6.6724,-6.6676,-6.6737,-6.6739,-6.6718,-6.6704,-6.6725,-6.6728,-6.6729,-6.6715,-6.6671,-6.6669,-6.6668,-6.6667,0,-6.7031,-6.697,-6.7029,-6.6977,-6.6966,-6.7018,-6.6975,-6.7008,-6.6967,-6.7007,-6.7012,-6.6948,-6.697,-6.6908,-6.6922,-6.6889,-6.6978,-6.6946,-6.6985,-6.6975,-6.7059,-6.7052,-6.7341,-6.7375,-6.7091,-6.7093,-6.7096,0,-6.7163,-6.7208,-6.7162,-6.7176,-6.7161,-6.7185,-6.7191,-6.7115,-6.7126,-6.7106,-6.7142,-6.7157,-6.7164,-6.7205,-6.7161,-6.7171,-6.7138,-6.7239,-6.7139,-6.7159,-6.7139,-6.7137,-6.7141,-6.7259,-6.7263,-6.7266,-6.7268,0,-6.7403,-6.7371,-6.7383,-6.7385,-6.7395,-6.7393,-6.7386,-6.7402,-6.7321,-6.7338,-6.7359,-6.7365,-6.7379,-6.7395,-6.7396,-6.7378,-6.7311,-6.73,-6.7319,-6.7341,-6.7361,-6.7351,-6.704,-6.7293,-6.7291,-6.7289,-6.7288,-6.7287,-6.7587,-6.7623,-6.7597,-6.7613,-6.7599,-6.7595,-6.7623,-6.7586,-6.7602,-6.7605,-6.7561,-6.7592,-6.7571,-6.7564,-6.7554,-6.7578,-6.7532,-6.756,-6.7567,-6.7575,-6.7589,-6.7359,-6.7578,-6.7577,-6.7577,-6.7576,-6.7575,0,-6.7823,-6.7801,-6.7817,-6.7809,-6.7822,-6.7757,-6.7746,-6.7762,-6.779,-6.7775,-6.7785,-6.781,-6.7826,-6.7784,-6.7794,-6.7822,-6.7791,-6.7827,-6.7824,-6.7821,-6.7629,-6.7611,-6.7851,-6.7851,-6.7851,-6.7851,-6.7851,-6.7851,-6.7947,-6.8004,-6.797,-6.802,-6.7998,-6.8026,-6.8026,-6.8022,-6.801,-6.8041,-6.8054,-6.8026,-6.8001,-6.8008,-6.8021,-6.8008,-6.8016,-6.8063,-6.8039,-6.7861,-6.7834,-6.7808,-6.7791,-6.8065,-6.8065,-6.8228,-6.823,-6.8231]},{"header":{"parameterUnit":"m.s-1","parameterCategory":1,"la1":30.2991,"la2":30.254,"lo1":-89.0895,"lo2":-89.0444,"dy":0.0017,"dx":0.0017,"nx":28,"ny":28,"refTime":"2023-08-20T09:00:00:Z","depth":0,"parameterNumber":3,"parameterNumberName":"V-component_of_WINDS"},"data":[0,0,0,0,0,0,0,0,0,0,0,0,0,0,0,0,0,0,0,0,0,0,0,0,0,0,0,0,0,0,0,0,0,0,0,0,0,0,0,0,0,0,0,0,0,0,0,0,0,0,0,0,0,0,0,0,0,0,-0.542,-0.542,0,-0.5441,-0.5441,-0.5442,-0.5398,-0.5397,-0.5396,-0.5394,-0.5419,-0.5421,-0.5423,0,0,0,0,0,0,0,0,0,0,0,0,0,-0.5344,-0.5345,-0.542,-0.542,-0.542,-0.5441,-0.5441,-0.5442,-0.5399,-0.5397,-0.5395,-0.5394,-0.5418,-0.5421,-0.5423,0,0,0,0,0,0,0,0,0,0,0,0,0,-0.5372,-0.5346,-0.542,-0.5401,-0.54,-0.5441,-0.5441,-0.5442,-0.5399,-0.5397,-0.5395,-0.5393,-0.5418,-0.5421,-0.5423,-0.5484,0,0,-0.5433,-0.5434,0,0,0,0,0,0,0,0,-0.5371,-0.5375,-0.5404,-0.5403,-0.5401,-0.5415,-0.5424,-0.5456,-0.5399,-0.5399,-0.5394,-0.5392,-0.542,-0.5422,-0.5431,-0.5486,-0.5487,-0.5433,-0.5435,-0.5436,-0.5437,0,0,0,0,0,0,0,-0.5369,-0.5374,-0.5428,-0.5404,-0.5403,-0.5393,-0.5394,-0.543,-0.5421,-0.5399,-0.5396,-0.5399,-0.5418,-0.5428,-0.5431,-0.5487,-0.5433,-0.5435,-0.5437,-0.5438,-0.5592,-0.5594,0,0,0,0,0,0,-0.5369,-0.5373,-0.5428,-0.5429,-0.538,-0.5396,-0.5397,-0.5413,-0.5421,-0.542,-0.5401,-0.5397,-0.5424,-0.5428,-0.5432,-0.5503,-0.5436,-0.5439,-0.544,-0.5589,-0.5592,-0.5595,0,0,0,0,0,0,-0.5367,-0.5374,-0.5427,-0.54,-0.5406,-0.5399,-0.5417,-0.5414,-0.5424,-0.5422,-0.542,-0.5412,-0.5423,-0.5428,-0.5471,-0.5504,-0.544,-0.5443,-0.5587,-0.559,-0.5593,-0.5647,0,0,0,0,0,0,-0.5365,-0.5374,-0.5397,-0.5401,-0.5407,-0.5466,-0.5419,-0.5416,-0.5429,-0.5424,-0.5432,-0.5432,-0.5421,-0.5467,-0.5474,-0.5507,-0.5445,-0.5584,-0.5588,-0.5592,-0.5643,-0.5652,-0.566,0,0,0,0,0,-0.5363,-0.5412,-0.5398,-0.5405,-0.5436,-0.5468,-0.5471,-0.5458,-0.5432,-0.5455,-0.5453,-0.5431,-0.5499,-0.5472,-0.548,-0.5514,-0.5582,-0.5587,-0.5592,-0.5639,-0.565,-0.566,0,0,0,0,0,0,-0.5414,-0.5412,-0.5397,-0.5449,-0.5458,-0.546,-0.5489,-0.5471,-0.5489,-0.5484,-0.5466,-0.5469,-0.5516,-0.5519,-0.5489,-0.5572,-0.5536,-0.5543,-0.5569,-0.558,-0.5589,-0.5587,-0.5448,0,0,0,0,0,-0.5431,-0.5456,-0.5454,-0.55,-0.5505,-0.5496,-0.551,-0.5498,-0.5508,-0.5512,-0.5513,-0.5524,-0.5548,-0.5564,-0.5585,-0.5642,-0.5644,-0.5669,-0.5678,-0.5685,-0.5692,-0.5722,-0.5733,-0.5611,-0.5611,-0.5611,0,0,-0.5467,-0.5469,-0.5487,-0.551,-0.5516,-0.5543,-0.55,-0.5531,-0.5551,-0.5517,-0.5558,-0.5559,-0.557,-0.562,-0.5643,-0.5624,-0.5726,-0.5692,-0.5698,-0.5701,-0.5728,-0.574,-0.575,-0.5615,-0.5614,-0.5614,0,0,-0.5547,-0.5551,-0.5589,-0.5595,-0.5604,-0.5598,-0.5607,-0.5611,-0.561,-0.565,-0.5625,-0.5649,-0.569,-0.5698,-0.5708,-0.5788,-0.5769,-0.5796,-0.5843,-0.5872,-0.5882,-0.589,-0.5919,-0.5929,-0.5802,-0.5802,-0.5802,0,-0.5591,-0.563,-0.5612,-0.5643,-0.5654,-0.5623,-0.5662,-0.5669,-0.5685,-0.5694,-0.5673,-0.5722,-0.5727,-0.5779,-0.5798,-0.5807,-0.5817,-0.5796,-0.5881,-0.589,-0.5897,-0.5925,-0.5935,-0.5805,-0.5805,-0.5805,-0.5804,0,-0.5683,-0.571,-0.574,-0.5755,-0.5769,-0.5805,-0.5792,-0.5809,-0.5795,-0.5791,-0.5832,-0.5837,-0.5858,-0.5869,-0.5857,-0.5919,-0.5907,-0.5884,-0.5847,-0.5912,-0.5938,-0.5948,-0.581,-0.5809,-0.5808,-0.5807,0,0,-0.5798,-0.58,-0.5812,-0.5818,-0.5824,-0.5845,-0.5878,-0.5898,-0.5913,-0.5924,-0.5952,-0.5986,-0.5964,-0.5975,-0.5963,-0.5989,-0.6052,-0.5962,-0.5962,-0.5979,-0.612,-0.6138,-0.6151,-0.6038,-0.604,-0.6042,-0.6119,0,-0.5877,-0.5933,-0.5917,-0.5974,-0.5999,-0.5968,-0.5997,-0.6005,-0.6001,-0.6022,-0.6018,-0.6043,-0.6012,-0.6018,-0.6042,-0.6039,-0.608,-0.6033,-0.6065,-0.6066,-0.6064,-0.6164,-0.6183,-0.6256,-0.6129,-0.6131,-0.6132,0,-0.5977,-0.5991,-0.605,-0.6051,-0.6061,-0.6087,-0.6103,-0.6123,-0.613,-0.6126,-0.6137,-0.6119,-0.6153,-0.6114,-0.616,-0.6128,-0.614,-0.614,-0.6143,-0.6146,-0.6104,-0.6171,-0.6279,-0.6291,-0.6147,-0.6146,-0.6145,0,-0.6055,-0.6088,-0.6128,-0.6133,-0.6136,-0.6155,-0.6157,-0.6162,-0.6174,-0.6188,-0.6196,-0.6214,-0.6224,-0.6239,-0.6227,-0.62,-0.6274,-0.6235,-0.6272,-0.6272,-0.629,-0.6289,-0.6403,-0.6296,-0.6296,-0.6296,-0.6296,0,-0.6145,-0.6183,-0.6162,-0.6187,-0.6228,-0.6208,-0.625,-0.6248,-0.6253,-0.6276,-0.6251,-0.6274,-0.6256,-0.6277,-0.6268,-0.6307,-0.6312,-0.6309,-0.6307,-0.6312,-0.6313,-0.632,-0.6315,-0.6299,-0.6298,-0.6298,-0.6297,0,-0.624,-0.6228,-0.6269,-0.6266,-0.6267,-0.6297,-0.6295,-0.6318,-0.6311,-0.6342,-0.6348,-0.6338,-0.6362,-0.635,-0.6376,-0.6369,-0.642,-0.641,-0.6417,-0.6415,-0.6452,-0.6449,-0.6576,-0.6592,-0.6474,-0.6475,-0.6476,0,-0.6299,-0.6327,-0.6327,-0.634,-0.6344,-0.6366,-0.6378,-0.6359,-0.6373,-0.6382,-0.6404,-0.6425,-0.6441,-0.648,-0.6476,-0.6495,-0.6486,-0.6529,-0.6489,-0.6493,-0.6487,-0.6486,-0.6488,-0.6537,-0.6539,-0.654,-0.6541,0,-0.6405,-0.6397,-0.6414,-0.643,-0.6444,-0.6456,-0.6465,-0.6478,-0.6459,-0.6476,-0.6499,-0.6511,-0.6536,-0.6557,-0.6573,-0.6576,-0.6556,-0.6553,-0.6563,-0.6569,-0.6572,-0.6571,-0.644,-0.6551,-0.655,-0.6549,-0.6548,-0.6548,-0.6484,-0.6506,-0.651,-0.653,-0.6534,-0.6543,-0.6564,-0.6559,-0.6578,-0.6596,-0.6584,-0.6611,-0.6617,-0.6636,-0.6641,-0.6662,-0.6645,-0.6659,-0.6663,-0.6667,-0.6672,-0.6568,-0.6665,-0.6665,-0.6664,-0.6664,-0.6664,0,-0.6588,-0.6588,-0.6607,-0.662,-0.6636,-0.6613,-0.6622,-0.6637,-0.6661,-0.6667,-0.6683,-0.6709,-0.6729,-0.6725,-0.6744,-0.6761,-0.6753,-0.6767,-0.6766,-0.6767,-0.6686,-0.6676,-0.6774,-0.6774,-0.6774,-0.6774,-0.6774,-0.6774,-0.6645,-0.6682,-0.6674,-0.6714,-0.6713,-0.6739,-0.6746,-0.6754,-0.6758,-0.6789,-0.6805,-0.6801,-0.6804,-0.6821,-0.6839,-0.6837,-0.6846,-0.6864,-0.6859,-0.6783,-0.6773,-0.6762,-0.6753,-0.6865,-0.6865,-0.6938,-0.6939,-0.6939]}]]